Location: Unspecified
(0.0000°N, 0.0000°E)
Time: 21:04:49
(UTC+00:00)

ISS - Pass Details

Date: 10 January 2026
Orbit: 414 x 424 km, 51.6° (Epoch: 13 January)

Event Time Altitude Azimuth Distance (km) Brightness Sun altitude
Exits shadow 05:01:04 34° 289° (WNW) 716 -3.2 -15.4°
Maximum altitude 05:02:10 50° 235° (SW) 544 -3.5 -15.1°
Drops below altitude 10° 05:05:28 10° 158° (SSE) 1,506 -0.3 -14.3°
Sets 05:07:36 0° 152° (SSE) 2,372 0.9 -13.9°
